Content
SEND FEEDBACK

Daily
Averages
Monthly
Summary
United States of America

KERSHAW, SOUTH CAROLINA


Home > North America > United States > South Carolina
Elevation: 510 feet     Latitude: 34 33N     Longitude: 080 35W

WEATHER
 
SELECT A DAY
Number of Records: 135,534;   Date Range: 12/8/08 - 7/9/14
 
SHARE

PRINT THIS DATA

[ ← Previous Day ]
WEATHER ALMANAC - JANUARY 31, 2013
[ Next Day → ]
[ °C ]   °F
Weather ElementAverageHighLow
Temperature44.4 °F50 °F (12:35 am)37.4 °F (8:15 pm)
Dewpoint27.8 °F50 °F (12:35 am)19.4 °F (12:55 pm)
Humidity55 %100 % (12:35 am)30 % (2:15 pm)
Barometer29.91 in30.09 in (10:55 pm)29.62 in (12:35 am)
Wind Speed11.3 mph20.7 mph (3:35 am)
Wind Gust32.2 mph (3:35 am)
Weather ElementAverage
Visibility10 mi
Wind DirectionSSW (210.9 °)

Weather ElementTotal
Precipitation---
Heating Degree Days21.3 (Base 65)
Averaged from 68 records on January 31, 2013
WEATHER CONDITIONS BREAKOUT
WIND DIRECTION BREAKOUT
WEATHER BY HOUR - JANUARY 31, 2013
[ °C ]   °F
Local TimeTemperatureDewpointHumidityBarometerVisibilityWind DirectionWind SpeedGust SpeedPrecipitationEventsConditions
12:35 AM50.0 °F50.0 °F100 %29.62 in10.0 miSW (220°)6.9 mphRainLight Rain
12:55 AM50.0 °F50.0 °F100 %29.62 in10.0 miSW (220°)12.7 mph17.3 mphRainLight Rain
1:15 AM50.0 °F48.2 °F94 %29.63 in10.0 miSW (230°)17.3 mph27.6 mphScattered Clouds
1:35 AM50.0 °F48.2 °F94 %29.64 in10.0 miSW (230°)15.0 mph24.2 mphScattered Clouds
1:55 AM50.0 °F46.4 °F87 %29.63 in10.0 miSW (230°)13.8 mph28.8 mphScattered Clouds
2:15 AM50.0 °F46.4 °F87 %29.64 in10.0 miSW (230°)13.8 mph24.2 mphPartly Cloudy
2:35 AM50.0 °F44.6 °F82 %29.65 in10.0 miSW (230°)19.6 mph29.9 mphClear
2:55 AM48.2 °F42.8 °F82 %29.66 in10.0 miWSW (240°)19.6 mph27.6 mphClear
3:15 AM48.2 °F42.8 °F82 %29.67 in10.0 miWSW (240°)15.0 mph31.1 mphScattered Clouds
3:35 AM48.2 °F41.0 °F76 %29.69 in10.0 miWSW (240°)20.7 mph32.2 mphMostly Cloudy
3:55 AM46.4 °F39.2 °F76 %29.71 in10.0 miSW (230°)16.1 mph26.5 mphOvercast
4:15 AM46.4 °F35.6 °F66 %29.72 in10.0 miWSW (240°)18.4 mph26.5 mphScattered Clouds
4:35 AM44.6 °F33.8 °F66 %29.73 in10.0 miSW (230°)13.8 mph24.2 mphClear
4:55 AM44.6 °F33.8 °F66 %29.74 in10.0 miWSW (240°)15.0 mph23.0 mphClear
5:15 AM42.8 °F33.8 °F70 %29.75 in10.0 miWSW (240°)12.7 mph21.9 mphClear
5:35 AM42.8 °F32.0 °F66 %29.77 in10.0 miWSW (250°)13.8 mph18.4 mphClear
5:55 AM41.0 °F32.0 °F70 %29.78 in10.0 miWSW (250°)13.8 mph21.9 mphClear
6:15 AM41.0 °F32.0 °F70 %29.79 in10.0 miWSW (250°)15.0 mph24.2 mphClear
6:35 AM41.0 °F32.0 °F70 %29.81 in10.0 miWest (260°)12.7 mph19.6 mphClear
6:55 AM41.0 °F30.2 °F65 %29.83 in10.0 miWSW (250°)11.5 mphClear
7:15 AM39.2 °F30.2 °F70 %29.85 in10.0 miWSW (250°)12.7 mphClear
7:55 AM39.2 °F28.4 °F65 %29.88 in10.0 miWSW (240°)12.7 mph16.1 mphClear
8:15 AM39.2 °F28.4 °F65 %29.90 in10.0 miWSW (250°)11.5 mphRainLight Rain
8:35 AM39.2 °F26.6 °F61 %29.91 in10.0 miWest (260°)13.8 mphRainLight Rain
8:55 AM41.0 °F26.6 °F57 %29.92 in10.0 miWest (260°)11.5 mphRainLight Rain
9:15 AM41.0 °F26.6 °F57 %29.94 in10.0 miWest (270°)13.8 mph18.4 mphRainLight Rain
9:35 AM42.8 °F26.6 °F53 %29.95 in10.0 miWest (260°)10.4 mphRainLight Rain
10:15 AM44.6 °F24.8 °F46 %29.95 in10.0 miWSW (250°)15.0 mph21.9 mphClear
10:35 AM44.6 °F24.8 °F46 %29.96 in10.0 miWest (270°)15.0 mphRainLight Rain
10:55 AM46.4 °F24.8 °F43 %29.96 in10.0 miWest (260°)15.0 mph20.7 mphRainLight Rain
11:15 AM46.4 °F24.8 °F43 %29.96 in10.0 miWest (270°)10.4 mph18.4 mphRainLight Rain
11:35 AM46.4 °F23.0 °F40 %29.96 in10.0 miWSW (250°)18.4 mph23.0 mphRainLight Rain
11:55 AM48.2 °F24.8 °F40 %29.96 in10.0 miWest (270°)10.4 mphRainLight Rain
12:15 PM48.2 °F24.8 °F40 %29.96 in10.0 miWSW (250°)10.4 mph16.1 mphRainLight Rain
12:35 PM48.2 °F23.0 °F37 %29.95 in10.0 miWSW (250°)13.8 mph18.4 mphRainLight Rain
12:55 PM48.2 °F19.4 °F32 %29.95 in10.0 miWest (280°)16.1 mph24.2 mphRainLight Rain
1:15 PM48.2 °F21.2 °F34 %29.96 in10.0 miWSW (250°)18.4 mph24.2 mphClear
1:35 PM48.2 °F19.4 °F32 %29.94 in10.0 miWest (280°)13.8 mph21.9 mphClear
1:55 PM48.2 °F19.4 °F32 %29.95 in10.0 miWSW (240°)19.6 mph27.6 mphClear
2:15 PM50.0 °F19.4 °F30 %29.95 in10.0 miWest (260°)19.6 mph25.3 mphClear
2:35 PM50.0 °F19.4 °F30 %29.95 in10.0 miWest (270°)18.4 mph26.5 mphClear
2:55 PM50.0 °F19.4 °F30 %29.96 in10.0 miWest (280°)10.4 mph21.9 mphClear
3:15 PM50.0 °F19.4 °F30 %29.97 in10.0 miWest (270°)19.6 mph27.6 mphClear
3:35 PM50.0 °F19.4 °F30 %29.97 in10.0 miWest (260°)20.7 mph25.3 mphClear
4:15 PM50.0 °F19.4 °F30 %29.98 in10.0 miWSW (250°)11.5 mph23.0 mphClear
4:35 PM50.0 °F19.4 °F30 %29.99 in10.0 miWSW (250°)16.1 mph25.3 mphClear
4:55 PM50.0 °F19.4 °F30 %29.99 in10.0 miWest (270°)15.0 mph20.7 mphClear
5:15 PM48.2 °F19.4 °F32 %29.99 in10.0 miWest (270°)10.4 mph18.4 mphClear
5:35 PM48.2 °F19.4 °F32 %30.00 in10.0 miWest (260°)8.1 mph16.1 mphClear
5:55 PM46.4 °F19.4 °F34 %30.00 in10.0 miWSW (250°)6.9 mphClear
6:15 PM44.6 °F23.0 °F43 %30.01 in10.0 miSW (230°)3.5 mphClear
6:35 PM42.8 °F23.0 °F46 %30.02 in10.0 miCalmClear
6:55 PM39.2 °F24.8 °F56 %30.02 in10.0 miCalmClear
7:15 PM39.2 °F23.0 °F52 %30.04 in10.0 miCalmClear
7:35 PM39.2 °F23.0 °F52 %30.04 in10.0 miCalmRainLight Rain
7:55 PM39.2 °F23.0 °F52 %30.04 in10.0 miCalmRainLight Rain
8:15 PM37.4 °F23.0 °F56 %30.05 in10.0 miCalmRainLight Rain
8:35 PM39.2 °F21.2 °F49 %30.05 in10.0 miCalmRainLight Rain
8:55 PM37.4 °F23.0 °F56 %30.06 in10.0 miCalmRainLight Rain
9:15 PM37.4 °F23.0 °F56 %30.06 in10.0 miCalmRainLight Rain
9:35 PM37.4 °F23.0 °F56 %30.06 in10.0 miCalmClear
9:55 PM37.4 °F23.0 °F56 %30.06 in10.0 miSSW (210°)3.5 mphClear
10:15 PM39.2 °F23.0 °F52 %30.07 in10.0 miSW (230°)5.8 mphClear
10:35 PM39.2 °F23.0 °F52 %30.08 in10.0 miSW (220°)5.8 mphClear
10:55 PM39.2 °F23.0 °F52 %30.09 in10.0 miSW (230°)8.1 mphClear
11:15 PM39.2 °F23.0 °F52 %30.09 in10.0 miSW (230°)8.1 mphRainLight Rain
11:35 PM39.2 °F23.0 °F52 %30.09 in10.0 miSW (220°)6.9 mphRainLight Rain
11:55 PM39.2 °F23.0 °F52 %30.09 in10.0 miSW (220°)8.1 mphRainLight Rain
Hourly data recorded from KLKR, located miles away from Kershaw, South Carolina







STORIES FROM OUR PARTNERS